[[{"header":{"parameterUnit":"m.s-1","parameterCategory":1,"la1":30.2991,"la2":30.254,"lo1":-89.0895,"lo2":-89.0444,"dy":0.0017,"dx":0.0017,"nx":28,"ny":28,"refTime":"2025-11-19T09:00:00:Z","depth":0,"parameterNumber":2,"parameterNumberName":"U-component_of_WINDS"},"data":[0,0,0,0,0,0,0,0,0,0,0,0,0,0,0,0,0,0,0,0,0,0,0,0,0,0,0,0,0,0,0,0,0,0,0,0,0,0,0,0,0,0,0,0,0,0,0,0,0,0,0,0,0,0,0,0,0,0,-1.8014,-1.8014,0,-1.8017,-1.8017,-1.8017,-1.7996,-1.7996,-1.7995,-1.7994,-1.7997,-1.7998,-1.7999,0,0,0,0,0,0,0,0,0,0,0,0,0,-1.7992,-1.7993,-1.8014,-1.8014,-1.8014,-1.8017,-1.8017,-1.8017,-1.7996,-1.7995,-1.7995,-1.7994,-1.7997,-1.7998,-1.7999,0,0,0,0,0,0,0,0,0,0,0,0,0,-1.7999,-1.7993,-1.8014,-1.8004,-1.8003,-1.8017,-1.8017,-1.8017,-1.7996,-1.7995,-1.7995,-1.7994,-1.7997,-1.7998,-1.7999,-1.8022,0,0,-1.8002,-1.8002,0,0,0,0,0,0,0,0,-1.7999,-1.8,-1.8006,-1.8005,-1.8004,-1.8005,-1.801,-1.8018,-1.7997,-1.7999,-1.7994,-1.7993,-1.8001,-1.8001,-1.8004,-1.8022,-1.8022,-1.8002,-1.8002,-1.8003,-1.8003,0,0,0,0,0,0,0,-1.7998,-1.8,-1.8015,-1.8006,-1.8005,-1.8,-1.8,-1.8011,-1.8005,-1.7999,-1.7997,-1.7998,-1.8,-1.8003,-1.8004,-1.8022,-1.8002,-1.8002,-1.8003,-1.8003,-1.8059,-1.806,0,0,0,0,0,0,-1.7999,-1.7999,-1.8015,-1.8015,-1.7999,-1.8001,-1.8001,-1.8006,-1.8004,-1.8003,-1.7999,-1.7997,-1.8002,-1.8002,-1.8004,-1.803,-1.8003,-1.8003,-1.8004,-1.8058,-1.8059,-1.806,0,0,0,0,0,0,-1.7999,-1.8,-1.8015,-1.8007,-1.8008,-1.8002,-1.8008,-1.8006,-1.8009,-1.8004,-1.8003,-1.8003,-1.8001,-1.8002,-1.8017,-1.803,-1.8004,-1.8005,-1.8057,-1.8059,-1.806,-1.8084,0,0,0,0,0,0,-1.7998,-1.8,-1.8009,-1.8007,-1.8009,-1.8029,-1.8008,-1.8007,-1.801,-1.8008,-1.8008,-1.8007,-1.8,-1.8016,-1.8018,-1.8031,-1.8005,-1.8056,-1.8058,-1.8059,-1.8082,-1.8086,-1.8089,0,0,0,0,0,-1.7997,-1.8016,-1.801,-1.8012,-1.8019,-1.8029,-1.803,-1.8022,-1.8012,-1.802,-1.8017,-1.8007,-1.8028,-1.8018,-1.802,-1.8033,-1.8055,-1.8057,-1.8059,-1.808,-1.8085,-1.8089,0,0,0,0,0,0,-1.8019,-1.8015,-1.8008,-1.8027,-1.8029,-1.8026,-1.8036,-1.8028,-1.8033,-1.803,-1.8021,-1.8021,-1.8037,-1.8037,-1.8025,-1.8055,-1.804,-1.8043,-1.8055,-1.806,-1.8063,-1.8063,-1.8006,0,0,0,0,0,-1.8026,-1.8035,-1.8031,-1.8047,-1.8049,-1.8042,-1.8047,-1.804,-1.8042,-1.8042,-1.8041,-1.8043,-1.805,-1.8055,-1.8061,-1.8082,-1.8081,-1.8092,-1.8096,-1.8099,-1.8101,-1.8112,-1.8117,-1.8067,-1.8067,-1.8067,0,0,-1.8041,-1.804,-1.8046,-1.8052,-1.8052,-1.8061,-1.8043,-1.8053,-1.806,-1.8044,-1.8058,-1.8057,-1.8058,-1.8076,-1.8084,-1.8076,-1.8115,-1.8102,-1.8104,-1.8105,-1.8115,-1.812,-1.8124,-1.8069,-1.8068,-1.8068,0,0,-1.8072,-1.8072,-1.8086,-1.8087,-1.8088,-1.8084,-1.8087,-1.8086,-1.8084,-1.8098,-1.8086,-1.8094,-1.8107,-1.8108,-1.8111,-1.8143,-1.8133,-1.8145,-1.8165,-1.8175,-1.8179,-1.8183,-1.8194,-1.8198,-1.8148,-1.8148,-1.8148,0,-1.809,-1.8103,-1.8094,-1.8105,-1.8108,-1.8094,-1.8108,-1.811,-1.8113,-1.8115,-1.8107,-1.8122,-1.8122,-1.814,-1.8148,-1.8151,-1.8154,-1.8145,-1.8179,-1.8183,-1.8186,-1.8197,-1.8201,-1.8149,-1.8149,-1.8149,-1.8149,0,-1.8125,-1.8135,-1.8146,-1.8149,-1.8153,-1.8166,-1.8159,-1.8164,-1.8158,-1.8155,-1.8169,-1.8169,-1.8175,-1.8179,-1.8172,-1.8196,-1.8191,-1.8181,-1.8165,-1.8192,-1.8202,-1.8206,-1.8151,-1.8151,-1.815,-1.815,0,0,-1.8171,-1.8169,-1.8173,-1.8174,-1.8174,-1.8181,-1.8193,-1.8199,-1.8204,-1.8207,-1.8217,-1.8228,-1.8218,-1.8221,-1.8215,-1.8225,-1.825,-1.8213,-1.8213,-1.822,-1.8276,-1.8284,-1.8289,-1.8244,-1.8245,-1.8245,-1.8276,0,-1.8201,-1.8221,-1.8213,-1.8234,-1.8242,-1.8229,-1.824,-1.8241,-1.8238,-1.8245,-1.8242,-1.825,-1.8237,-1.8239,-1.8248,-1.8245,-1.8261,-1.8243,-1.8253,-1.8254,-1.8253,-1.8294,-1.8302,-1.8331,-1.828,-1.828,-1.8281,0,-1.8239,-1.8243,-1.8265,-1.8263,-1.8267,-1.8276,-1.8281,-1.8287,-1.8289,-1.8286,-1.8289,-1.8281,-1.8293,-1.8277,-1.8294,-1.8281,-1.8285,-1.8285,-1.8286,-1.8286,-1.8269,-1.8295,-1.834,-1.8344,-1.8287,-1.8286,-1.8286,0,-1.827,-1.8281,-1.8295,-1.8297,-1.8296,-1.8303,-1.8302,-1.8303,-1.8307,-1.8311,-1.8313,-1.8319,-1.8322,-1.8327,-1.832,-1.831,-1.8338,-1.8322,-1.8336,-1.8336,-1.8342,-1.8342,-1.8388,-1.8345,-1.8345,-1.8345,-1.8345,0,-1.8305,-1.8319,-1.8309,-1.8318,-1.8333,-1.8324,-1.8339,-1.8338,-1.8338,-1.8346,-1.8335,-1.8343,-1.8335,-1.8342,-1.8337,-1.8351,-1.8353,-1.8351,-1.835,-1.8352,-1.8352,-1.8355,-1.8352,-1.8346,-1.8346,-1.8346,-1.8345,0,-1.8342,-1.8336,-1.8351,-1.8348,-1.8348,-1.8359,-1.8357,-1.8365,-1.8362,-1.8373,-1.8375,-1.8369,-1.8377,-1.8371,-1.838,-1.8376,-1.8395,-1.8391,-1.8395,-1.8393,-1.8408,-1.8407,-1.8457,-1.8463,-1.8416,-1.8417,-1.8417,0,-1.8365,-1.8375,-1.8374,-1.8378,-1.8379,-1.8386,-1.839,-1.8382,-1.8387,-1.8389,-1.8397,-1.8404,-1.8409,-1.8423,-1.842,-1.8426,-1.8422,-1.8439,-1.8423,-1.8425,-1.8422,-1.8421,-1.8422,-1.8442,-1.8443,-1.8443,-1.8443,0,-1.8406,-1.8402,-1.8408,-1.8413,-1.8418,-1.8422,-1.8424,-1.8429,-1.842,-1.8426,-1.8434,-1.8438,-1.8446,-1.8453,-1.8458,-1.8459,-1.845,-1.8449,-1.8452,-1.8455,-1.8457,-1.8456,-1.8404,-1.8447,-1.8447,-1.8447,-1.8447,-1.8446,-1.8437,-1.8445,-1.8445,-1.8452,-1.8453,-1.8456,-1.8463,-1.8461,-1.8467,-1.8473,-1.8467,-1.8477,-1.8478,-1.8484,-1.8485,-1.8493,-1.8486,-1.8491,-1.8492,-1.8494,-1.8496,-1.8455,-1.8494,-1.8494,-1.8493,-1.8493,-1.8493,0,-1.8477,-1.8476,-1.8483,-1.8487,-1.8492,-1.8483,-1.8485,-1.8491,-1.8499,-1.8501,-1.8506,-1.8515,-1.8522,-1.852,-1.8526,-1.8533,-1.8529,-1.8534,-1.8534,-1.8534,-1.8502,-1.8498,-1.8537,-1.8537,-1.8537,-1.8537,-1.8537,-1.8537,-1.8499,-1.8513,-1.8509,-1.8523,-1.8522,-1.8531,-1.8534,-1.8536,-1.8537,-1.8548,-1.8554,-1.8552,-1.8552,-1.8558,-1.8564,-1.8563,-1.8566,-1.8573,-1.8571,-1.8541,-1.8536,-1.8532,-1.8529,-1.8574,-1.8574,-1.8602,-1.8603,-1.8603]},{"header":{"parameterUnit":"m.s-1","parameterCategory":1,"la1":30.2991,"la2":30.254,"lo1":-89.0895,"lo2":-89.0444,"dy":0.0017,"dx":0.0017,"nx":28,"ny":28,"refTime":"2025-11-19T09:00:00:Z","depth":0,"parameterNumber":3,"parameterNumberName":"V-component_of_WINDS"},"data":[0,0,0,0,0,0,0,0,0,0,0,0,0,0,0,0,0,0,0,0,0,0,0,0,0,0,0,0,0,0,0,0,0,0,0,0,0,0,0,0,0,0,0,0,0,0,0,0,0,0,0,0,0,0,0,0,0,0,3.1412,3.1413,0,3.1493,3.1494,3.1495,3.1485,3.1483,3.1482,3.1481,3.1561,3.1565,3.1568,0,0,0,0,0,0,0,0,0,0,0,0,0,3.1248,3.1251,3.1412,3.1413,3.1414,3.1493,3.1494,3.1495,3.1485,3.1483,3.1482,3.148,3.156,3.1564,3.1568,0,0,0,0,0,0,0,0,0,0,0,0,0,3.1323,3.1252,3.1412,3.1418,3.142,3.1493,3.1494,3.1495,3.1485,3.1483,3.1481,3.1479,3.1559,3.1564,3.1569,3.1639,0,0,3.1584,3.1586,0,0,0,0,0,0,0,0,3.1319,3.1329,3.1416,3.1418,3.142,3.1477,3.1466,3.1543,3.1486,3.146,3.1481,3.1478,3.1535,3.1542,3.1561,3.1643,3.1647,3.1585,3.1588,3.159,3.1591,0,0,0,0,0,0,0,3.1314,3.1325,3.1444,3.1418,3.142,3.1417,3.1426,3.148,3.1507,3.1462,3.1462,3.1472,3.1535,3.1556,3.1563,3.1648,3.1585,3.1589,3.1592,3.1594,3.1795,3.1797,0,0,0,0,0,0,3.1307,3.1321,3.1441,3.1446,3.1363,3.1422,3.1431,3.146,3.1507,3.1512,3.1473,3.1471,3.1548,3.1557,3.1566,3.1653,3.159,3.1595,3.1598,3.1792,3.1795,3.1798,0,0,0,0,0,0,3.1303,3.1318,3.1438,3.1384,3.1399,3.1427,3.1459,3.1463,3.1484,3.1515,3.152,3.149,3.1547,3.1558,3.1622,3.1656,3.1597,3.1602,3.179,3.1793,3.1796,3.1827,0,0,0,0,0,0,3.1299,3.1316,3.1343,3.1384,3.1402,3.1493,3.1461,3.1466,3.1493,3.1491,3.1532,3.1537,3.1547,3.1614,3.1627,3.1662,3.1605,3.1787,3.1791,3.1795,3.1823,3.1831,3.1838,0,0,0,0,0,3.1293,3.1348,3.1345,3.1359,3.1436,3.1495,3.1505,3.1516,3.1496,3.1523,3.1544,3.1535,3.165,3.1621,3.1635,3.1672,3.1785,3.179,3.1795,3.182,3.183,3.1838,0,0,0,0,0,0,3.1308,3.1353,3.135,3.142,3.1454,3.1493,3.1528,3.1525,3.1565,3.1561,3.1572,3.1582,3.1646,3.1665,3.1632,3.1744,3.1715,3.1723,3.1729,3.1738,3.1746,3.174,3.161,0,0,0,0,0,3.132,3.1365,3.1401,3.1459,3.1477,3.15,3.1526,3.1531,3.1567,3.158,3.1605,3.1639,3.1683,3.1712,3.1754,3.1826,3.1836,3.1859,3.1866,3.1872,3.1879,3.1921,3.1932,3.1815,3.1815,3.1815,0,0,3.1345,3.1375,3.1402,3.1463,3.149,3.1536,3.1512,3.156,3.1595,3.1588,3.165,3.1669,3.1708,3.1777,3.1809,3.1795,3.1914,3.1878,3.1883,3.1887,3.1927,3.1938,3.1948,3.1818,3.1818,3.1817,0,0,3.1413,3.1439,3.1492,3.152,3.1562,3.1577,3.159,3.163,3.1644,3.1706,3.1703,3.1744,3.1818,3.1847,3.1871,3.1954,3.1948,3.1967,3.2006,3.2046,3.2056,3.2064,3.2095,3.2105,3.1974,3.1974,3.1974,0,3.1437,3.1507,3.1519,3.157,3.1598,3.1595,3.1649,3.1675,3.1728,3.1747,3.1731,3.1827,3.1853,3.193,3.195,3.1969,3.1985,3.1962,3.2053,3.2062,3.207,3.2099,3.2111,3.1976,3.1976,3.1975,3.1975,0,3.1536,3.1585,3.1622,3.1676,3.1708,3.1759,3.178,3.1811,3.1814,3.1832,3.1897,3.1928,3.1977,3.1996,3.1999,3.2074,3.2064,3.2051,3.2022,3.2083,3.2111,3.2122,3.1979,3.1978,3.1978,3.1977,0,0,3.1615,3.1676,3.169,3.1715,3.1762,3.18,3.1852,3.1902,3.1929,3.1966,3.2011,3.2076,3.2065,3.2093,3.2099,3.2135,3.22,3.2117,3.2118,3.2133,3.2287,3.2297,3.231,3.2197,3.2199,3.2201,3.2284,0,3.1689,3.1782,3.1796,3.1879,3.1925,3.1924,3.197,3.2004,3.2022,3.2064,3.2083,3.213,3.211,3.2128,3.2163,3.2185,3.2231,3.2179,3.2239,3.2241,3.223,3.2324,3.2335,3.2412,3.2295,3.2297,3.2298,0,3.1787,3.1829,3.1917,3.196,3.198,3.2021,3.2069,3.2108,3.2148,3.2158,3.2191,3.2194,3.2249,3.2218,3.2295,3.2259,3.2284,3.2299,3.2302,3.2309,3.2274,3.2334,3.2436,3.2448,3.2315,3.2314,3.2312,0,3.1838,3.1916,3.1979,3.2,3.2052,3.2081,3.2104,3.2142,3.2172,3.2213,3.2233,3.228,3.2306,3.2342,3.2358,3.2334,3.2435,3.2405,3.2446,3.2446,3.2467,3.2466,3.2576,3.2482,3.2482,3.2482,3.2482,0,3.1919,3.1973,3.2003,3.2042,3.2103,3.2118,3.2178,3.22,3.2234,3.2277,3.2279,3.232,3.2338,3.2382,3.2395,3.2457,3.2468,3.2479,3.2482,3.248,3.2478,3.2497,3.2492,3.2485,3.2484,3.2484,3.2483,0,3.1985,3.2008,3.2077,3.2121,3.2134,3.2177,3.2215,3.2253,3.2271,3.2327,3.2341,3.237,3.2422,3.2441,3.2504,3.2513,3.2585,3.2583,3.2573,3.2574,3.2614,3.2611,3.274,3.2759,3.2652,3.2653,3.2654,0,3.2036,3.2078,3.2128,3.2158,3.2182,3.223,3.2261,3.2278,3.2311,3.236,3.2393,3.2445,3.2487,3.2571,3.2597,3.2646,3.2646,3.2688,3.2653,3.265,3.2648,3.2646,3.2651,3.2694,3.2695,3.2696,3.2697,0,3.2125,3.2134,3.218,3.223,3.2267,3.2307,3.2346,3.237,3.2393,3.243,3.2484,3.2517,3.2583,3.2635,3.2685,3.2708,3.2707,3.2708,3.272,3.2719,3.2711,3.2717,3.2591,3.2705,3.2704,3.2703,3.2703,3.2703,3.2186,3.2224,3.2266,3.2317,3.2348,3.2385,3.2424,3.2449,3.2494,3.255,3.2557,3.2615,3.2655,3.2723,3.2749,3.2795,3.2784,3.2801,3.2806,3.281,3.2814,3.2704,3.2804,3.2804,3.2804,3.2804,3.2804,0,3.2276,3.2303,3.235,3.2405,3.2446,3.2442,3.2486,3.252,3.2572,3.2609,3.2652,3.2715,3.2767,3.2798,3.285,3.2881,3.2882,3.2894,3.2892,3.2898,3.282,3.2805,3.2893,3.2893,3.2892,3.2892,3.2892,3.2892,3.2327,3.2393,3.2408,3.2489,3.2516,3.2574,3.2599,3.2634,3.2664,3.2735,3.2778,3.2799,3.2835,3.289,3.2937,3.2945,3.2965,3.2978,3.2985,3.2912,3.2903,3.2894,3.288,3.2982,3.2982,3.3059,3.306,3.306]}]]